GTRVO GCXO-GCTS

Flight info

Callsign GTRVO
Flight time 0h 41m
Altitude 4500
Route VFR
Aircraft C208/L-SDFGR/C

Departure

Time 2026-04-23 19:24
Airport Tenerife Norte-Ciudad de La Laguna Airport (GCXO)

Arrival

Time 2026-04-23 20:06
Airport Tenerife Sur Airport (GCTS)
Time Latitude Longitude Altitude Speed Heading
2026-04-23 19:15 28.48824 -16.35326 2071 ft 0 kts 237°
2026-04-23 19:20 28.48854 -16.35346 2070 ft 8 kts 290°
2026-04-23 19:20 28.48843 -16.35396 2070 ft 9 kts 198°
2026-04-23 19:20 28.48804 -16.35408 2072 ft 8 kts 168°
2026-04-23 19:20 28.48771 -16.35326 2074 ft 16 kts 110°
2026-04-23 19:21 28.48719 -16.35171 2079 ft 26 kts 109°
2026-04-23 19:21 28.48575 -16.34738 2074 ft 25 kts 110°
2026-04-23 19:21 28.48515 -16.34554 2065 ft 27 kts 112°
2026-04-23 19:22 28.48443 -16.34339 2055 ft 26 kts 111°
2026-04-23 19:22 28.48381 -16.34216 2051 ft 13 kts 143°
2026-04-23 19:22 28.48240 -16.34036 2046 ft 12 kts 119°
2026-04-23 19:23 28.48231 -16.34049 2047 ft 5 kts 293°
2026-04-23 19:23 28.48281 -16.34198 2053 ft 43 kts 291°
2026-04-23 19:23 28.48427 -16.34653 2115 ft 73 kts 288°
2026-04-23 19:24 28.48696 -16.35794 2589 ft 77 kts 288°
2026-04-23 19:24 28.48818 -16.36389 2839 ft 78 kts 284°
2026-04-23 19:24 28.48343 -16.37505 3357 ft 104 kts 189°
2026-04-23 19:25 28.47474 -16.36208 3883 ft 108 kts 98°
2026-04-23 19:25 28.46965 -16.34306 3867 ft 144 kts 115°
2026-04-23 19:26 28.45356 -16.33199 4098 ft 134 kts 160°
2026-04-23 19:26 28.44485 -16.32813 4006 ft 137 kts 159°
2026-04-23 19:27 28.42599 -16.32093 3499 ft 146 kts 165°
2026-04-23 19:27 28.39956 -16.32951 2519 ft 139 kts 223°
2026-04-23 19:28 28.38608 -16.33717 2371 ft 128 kts 202°
2026-04-23 19:28 28.36565 -16.34264 2329 ft 139 kts 194°
2026-04-23 19:29 28.35591 -16.34448 2331 ft 144 kts 191°
2026-04-23 19:29 28.33530 -16.34785 2445 ft 157 kts 193°
2026-04-23 19:30 28.31332 -16.35329 2423 ft 165 kts 196°
2026-04-23 19:30 28.30211 -16.35658 2423 ft 167 kts 198°
2026-04-23 19:30 28.27941 -16.36231 2482 ft 168 kts 194°
2026-04-23 19:31 28.26794 -16.36545 2422 ft 170 kts 195°
2026-04-23 19:31 28.25660 -16.36887 2392 ft 169 kts 195°
2026-04-23 19:31 28.24520 -16.37218 2386 ft 167 kts 197°
2026-04-23 19:31 28.23430 -16.37630 2398 ft 163 kts 203°
2026-04-23 19:32 28.22404 -16.38153 2423 ft 161 kts 208°
2026-04-23 19:32 28.21439 -16.38771 2448 ft 159 kts 214°
2026-04-23 19:32 28.20486 -16.39420 2379 ft 163 kts 210°
2026-04-23 19:32 28.19503 -16.40047 2381 ft 162 kts 214°
2026-04-23 19:33 28.18602 -16.40765 2511 ft 154 kts 222°
2026-04-23 19:33 28.17810 -16.41598 2492 ft 157 kts 226°
2026-04-23 19:33 28.16297 -16.43386 2495 ft 155 kts 233°
2026-04-23 19:34 28.15596 -16.44324 2470 ft 157 kts 231°
2026-04-23 19:34 28.14879 -16.45272 2417 ft 160 kts 230°
2026-04-23 19:34 28.13392 -16.47137 2403 ft 160 kts 229°
2026-04-23 19:35 28.12634 -16.48057 2394 ft 160 kts 227°
2026-04-23 19:35 28.11862 -16.48954 2381 ft 159 kts 226°
2026-04-23 19:35 28.11082 -16.49835 2384 ft 158 kts 225°
2026-04-23 19:35 28.10292 -16.50692 2378 ft 158 kts 221°
2026-04-23 19:36 28.09514 -16.51573 2343 ft 159 kts 233°
2026-04-23 19:36 28.08901 -16.52608 2325 ft 158 kts 236°
2026-04-23 19:36 28.08244 -16.53581 2154 ft 163 kts 233°
2026-04-23 19:36 28.07580 -16.54662 2034 ft 170 kts 242°
2026-04-23 19:37 28.07047 -16.55877 1845 ft 174 kts 246°
2026-04-23 19:37 28.06560 -16.57140 1661 ft 171 kts 248°
2026-04-23 19:37 28.06111 -16.58334 1473 ft 160 kts 249°
2026-04-23 19:37 28.05720 -16.59463 1370 ft 145 kts 253°
2026-04-23 19:38 28.05359 -16.60413 1352 ft 122 kts 232°
2026-04-23 19:38 28.04610 -16.60682 1104 ft 120 kts 167°
2026-04-23 19:38 28.03845 -16.60443 919 ft 106 kts 139°
2026-04-23 19:38 28.03572 -16.59756 659 ft 99 kts 76°
2026-04-23 19:39 28.03824 -16.59023 368 ft 98 kts 70°
2026-04-23 19:39 28.04073 -16.58324 198 ft 89 kts 69°
2026-04-23 19:39 28.04280 -16.57730 194 ft 74 kts 69°
2026-04-23 19:39 28.04461 -16.57121 259 ft 88 kts 88°
2026-04-23 19:40 28.04089 -16.56540 419 ft 110 kts 142°
2026-04-23 19:40 28.03302 -16.56237 560 ft 129 kts 172°
2026-04-23 19:40 28.02359 -16.56271 654 ft 137 kts 178°
2026-04-23 19:40 28.01376 -16.56449 685 ft 151 kts 204°
2026-04-23 19:41 28.00663 -16.57360 729 ft 161 kts 245°
2026-04-23 19:41 28.00296 -16.58536 816 ft 163 kts 252°
2026-04-23 19:41 28.00054 -16.59705 780 ft 140 kts 288°
2026-04-23 19:41 28.00722 -16.59962 670 ft 109 kts 47°
2026-04-23 19:42 28.00995 -16.59155 591 ft 118 kts 74°
2026-04-23 19:42 28.01212 -16.58220 665 ft 129 kts 73°
2026-04-23 19:42 28.01471 -16.57190 617 ft 140 kts 78°
2026-04-23 19:42 28.00938 -16.56395 651 ft 149 kts 176°
2026-04-23 19:43 28.00220 -16.57145 690 ft 154 kts 257°
2026-04-23 19:43 28.00031 -16.58168 738 ft 124 kts 260°
2026-04-23 19:43 27.99906 -16.59105 667 ft 120 kts 265°
2026-04-23 19:43 27.99905 -16.60053 656 ft 118 kts 288°
2026-04-23 19:44 28.00280 -16.60828 724 ft 113 kts 313°
2026-04-23 19:44 28.00918 -16.61298 768 ft 109 kts 343°
2026-04-23 19:44 28.01536 -16.61539 918 ft 81 kts 346°
2026-04-23 19:44 28.02030 -16.61696 989 ft 72 kts 352°
2026-04-23 19:45 28.02537 -16.61707 866 ft 74 kts 23°
2026-04-23 19:45 28.02936 -16.61305 782 ft 80 kts 52°
2026-04-23 19:45 28.03211 -16.60760 711 ft 78 kts 66°
2026-04-23 19:45 28.03457 -16.60082 573 ft 102 kts 68°
2026-04-23 19:46 28.03719 -16.59332 381 ft 99 kts 69°
2026-04-23 19:46 28.03964 -16.58640 218 ft 89 kts 66°
2026-04-23 19:46 28.04171 -16.58041 198 ft 74 kts 68°
2026-04-23 19:46 28.04348 -16.57536 198 ft 64 kts 69°
2026-04-23 19:47 28.04467 -16.57194 224 ft 77 kts 67°
2026-04-23 19:47 28.04646 -16.56452 545 ft 79 kts 122°
2026-04-23 19:47 28.04040 -16.56243 691 ft 102 kts 166°
2026-04-23 19:47 28.03284 -16.56119 712 ft 116 kts 166°
2026-04-23 19:48 28.02512 -16.56247 636 ft 126 kts 229°
2026-04-23 19:48 28.02168 -16.57152 660 ft 127 kts 255°
2026-04-23 19:48 28.01976 -16.58136 616 ft 126 kts 260°
2026-04-23 19:48 28.01839 -16.59101 625 ft 125 kts 266°
2026-04-23 19:49 28.02126 -16.59962 654 ft 116 kts 327°
2026-04-23 19:49 28.02822 -16.60389 645 ft 105 kts 341°
2026-04-23 19:49 28.03364 -16.60268 570 ft 81 kts 65°
2026-04-23 19:49 28.03574 -16.59694 431 ft 76 kts 67°
2026-04-23 19:50 28.03779 -16.59150 325 ft 74 kts 68°
2026-04-23 19:50 28.03965 -16.58618 219 ft 70 kts 70°
2026-04-23 19:50 28.04136 -16.58130 202 ft 63 kts 69°
2026-04-23 19:50 28.04296 -16.57668 201 ft 73 kts 68°
2026-04-23 19:51 28.04501 -16.57097 367 ft 84 kts 80°
2026-04-23 19:51 28.04096 -16.56583 517 ft 107 kts 160°
2026-04-23 19:51 28.03303 -16.56359 637 ft 125 kts 164°
2026-04-23 19:51 28.02434 -16.56637 671 ft 147 kts 220°
2026-04-23 19:52 28.02059 -16.57321 720 ft 155 kts 245°
2026-04-23 19:52 28.01589 -16.58742 722 ft 138 kts 270°
2026-04-23 19:52 28.02035 -16.59600 576 ft 130 kts 333°
2026-04-23 19:52 28.02853 -16.59855 438 ft 112 kts
2026-04-23 19:53 28.03498 -16.59600 403 ft 89 kts 40°
2026-04-23 19:53 28.03838 -16.58996 292 ft 92 kts 68°
2026-04-23 19:53 28.04059 -16.58362 204 ft 80 kts 69°
2026-04-23 19:53 28.04250 -16.57817 194 ft 69 kts 68°
2026-04-23 19:54 28.04425 -16.57315 232 ft 74 kts 69°
2026-04-23 19:54 28.04431 -16.56746 450 ft 82 kts 121°
2026-04-23 19:54 28.03818 -16.56476 527 ft 110 kts 168°
2026-04-23 19:54 28.03037 -16.56386 669 ft 118 kts 171°
2026-04-23 19:55 28.02257 -16.56656 693 ft 129 kts 224°
2026-04-23 19:55 28.01798 -16.57527 737 ft 127 kts 251°
2026-04-23 19:55 28.01571 -16.58506 648 ft 130 kts 262°
2026-04-23 19:55 28.01857 -16.59381 547 ft 120 kts 331°
2026-04-23 19:56 28.02589 -16.59736 480 ft 111 kts 347°
2026-04-23 19:56 28.03260 -16.59834 462 ft 85 kts 21°
2026-04-23 19:56 28.03631 -16.59446 390 ft 71 kts 64°
2026-04-23 19:56 28.03846 -16.58944 280 ft 72 kts 68°
2026-04-23 19:57 28.04032 -16.58426 215 ft 69 kts 68°
2026-04-23 19:57 28.04197 -16.57946 189 ft 60 kts 73°
2026-04-23 19:57 28.04310 -16.57630 198 ft 75 kts 69°
2026-04-23 19:57 28.04298 -16.56911 494 ft 84 kts 147°
2026-04-23 19:58 28.03648 -16.56694 636 ft 104 kts 163°
2026-04-23 19:58 28.02872 -16.56613 629 ft 118 kts 175°
2026-04-23 19:58 28.02133 -16.57072 624 ft 138 kts 238°
2026-04-23 19:58 28.01785 -16.58086 654 ft 140 kts 259°
2026-04-23 19:59 28.01786 -16.59138 610 ft 132 kts 306°
2026-04-23 19:59 28.02476 -16.59641 457 ft 113 kts 345°
2026-04-23 19:59 28.03190 -16.59814 449 ft 95 kts 15°
2026-04-23 19:59 28.03630 -16.59455 417 ft 71 kts 59°
2026-04-23 20:00 28.03843 -16.58965 299 ft 67 kts 68°
2026-04-23 20:00 28.04015 -16.58475 213 ft 67 kts 70°
2026-04-23 20:00 28.04171 -16.58024 190 ft 53 kts 70°
2026-04-23 20:00 28.04345 -16.57550 234 ft 77 kts 66°
2026-04-23 20:01 28.04469 -16.57004 486 ft 75 kts 98°
2026-04-23 20:01 28.04000 -16.56596 570 ft 102 kts 160°
2026-04-23 20:01 28.03228 -16.56347 630 ft 123 kts 155°
2026-04-23 20:01 28.02361 -16.56081 689 ft 139 kts 172°
2026-04-23 20:02 28.01499 -16.56606 732 ft 151 kts 236°
2026-04-23 20:02 28.01188 -16.57700 668 ft 144 kts 257°
2026-04-23 20:02 28.00985 -16.58761 687 ft 133 kts 261°
2026-04-23 20:02 28.00885 -16.59786 736 ft 130 kts 266°
2026-04-23 20:03 28.00831 -16.60713 1187 ft 107 kts 272°
2026-04-23 20:03 28.00823 -16.61612 1355 ft 121 kts 274°
2026-04-23 20:03 28.01152 -16.62336 1257 ft 99 kts 338°
2026-04-23 20:03 28.01786 -16.62522 1187 ft 97 kts
2026-04-23 20:04 28.02431 -16.62412 1174 ft 91 kts 15°
2026-04-23 20:04 28.02825 -16.61912 1026 ft 98 kts 67°
2026-04-23 20:04 28.03054 -16.61193 952 ft 90 kts 66°
2026-04-23 20:04 28.03280 -16.60570 806 ft 81 kts 68°
2026-04-23 20:05 28.03410 -16.60194 731 ft 73 kts 58°
2026-04-23 20:05 28.03652 -16.59537 433 ft 68 kts 69°
2026-04-23 20:05 28.03818 -16.59056 311 ft 65 kts 63°
2026-04-23 20:05 28.03983 -16.58580 208 ft 64 kts 66°
2026-04-23 20:06 28.04124 -16.58178 196 ft 48 kts 69°
2026-04-23 20:06 28.04276 -16.57735 240 ft 72 kts 68°
2026-04-23 20:06 28.04355 -16.57182 435 ft 85 kts 117°
2026-04-23 20:06 28.03729 -16.56905 590 ft 107 kts 163°
2026-04-23 20:07 28.03578 -16.56414 420 ft 94 kts 28°
2026-04-23 20:07 28.04217 -16.56631 272 ft 97 kts 333°
2026-04-23 20:07 28.04457 -16.57025 231 ft 92 kts 275°
2026-04-23 20:07 28.04310 -16.57642 190 ft 72 kts 248°
2026-04-23 20:08 28.03959 -16.58364 256 ft 90 kts 193°
2026-04-23 20:08 28.03435 -16.58116 423 ft 90 kts 131°
2026-04-23 20:08 28.03044 -16.57862 500 ft 105 kts 173°
2026-04-23 20:08 28.02456 -16.58421 671 ft 121 kts 243°
2026-04-23 20:09 28.02157 -16.59349 838 ft 132 kts 253°
2026-04-23 20:09 28.02341 -16.60200 1007 ft 108 kts 340°
2026-04-23 20:09 28.03042 -16.60177 841 ft 93 kts 18°
2026-04-23 20:09 28.03528 -16.59812 665 ft 83 kts 58°
2026-04-23 20:10 28.03776 -16.59173 326 ft 86 kts 70°
2026-04-23 20:10 28.03970 -16.58619 196 ft 59 kts 70°
2026-04-23 20:10 28.04083 -16.58291 193 ft 33 kts 68°